Location: Follega
(52.8850°N, 5.7362°E)
Time: 04:13:08
(UTC+00:00)

Cosmos 2297 Rocket - Pass Details

Date: 05 October 2020
Orbit: 838 x 845 km, 71.0° (Epoch: 26 October)

Event Time Altitude Azimuth Distance (km) Brightness Sun altitude
Rises 20:03:43 0° 327° (NNW) 3,416 6.3 -27.1°
Reaches altitude 10° 20:06:38 10° 341° (NNW) 2,479 5.2 -27.4°
Enters shadow 20:11:13 25° 34° (NE) 1,660 3.7 -28.0°
